Edinburgh Airport, United Kingdom

6:35 PM BST on August 20, 2017 (GMT +0100)
Edinburgh Airport

Weather History for EGPH - January, 2014

Change the Weather History Date:

Wednesday, January 1, 2014

  Actual Average Record
Temperature  
Mean Temperature 42 °F -  
Max Temperature 48 °F 43 °F 55 °F (2015)
Min Temperature 35 °F 33 °F 21 °F (2002)
Degree Days  
Heating Degree Days 24    
Moisture  
Dew Point 38 °F    
Average Humidity 87    
Maximum Humidity 93    
Minimum Humidity 81    
Precipitation  
Precipitation 0.00 in 0.07 in - ()
Sea Level Pressure  
Sea Level Pressure 29.01 in    
Wind  
Wind Speed 7 mph ()    
Max Wind Speed 17 mph    
Max Gust Speed -    
Visibility 6.2 miles    
Events Rain    
Averages and records for this station are not official NWS values.
T = Trace of Precipitation, MM = Missing Value Source: Averaged Metar Reports

Daily Weather History Graph

Daily Weather History Graph

Search for Another Location

Airport or City:

Trip Planner

Search our weather history database for the weather conditions in past years. The results will help you decide how hot, cold, wet, or windy it might be!

Date:

Astronomy

Jan. 01, 2014 Rise Set
Actual Time 8:44 AM GMT 3:49 PM GMT
Civil Twilight 7:57 AM GMT 4:36 PM GMT
Nautical Twilight 7:08 AM GMT 5:25 PM GMT
Astronomical Twilight 6:23 AM GMT 6:10 PM GMT
Moon 8:09 AM GMT (1/1) 4:32 PM GMT (1/1)
Length of Visible Light 8h 39m
Length of Day
7h 05m
New Moon, 0% of the Moon is Illuminated
Jan 1
New Moon
Jan 8
First Quarter
Jan 16
Full
Jan 24
Last Quarter
Jan 30
New

Hourly Weather History & Observations

Time (GMT) Temp. Windchill Dew Point Humidity Pressure Visibility Wind Dir Wind Speed Gust Speed Precip Events Conditions
12:20 AM 41.0 °F 37.1 °F 35.6 °F 81% 29.27 in 6.2 mi SSW 5.8 mph - N/A   Partly Cloudy
12:50 AM 41.0 °F 38.0 °F 35.6 °F 81% 29.27 in - South 4.6 mph - N/A   Clear
1:20 AM 41.0 °F 38.0 °F 35.6 °F 81% 29.27 in - ESE 4.6 mph - N/A   Clear
1:50 AM 41.0 °F 39.0 °F 35.6 °F 81% 29.27 in - Variable 3.5 mph - N/A   Clear
2:20 AM 37.4 °F - 33.8 °F 87% 29.27 in 6.2 mi Variable 2.3 mph - N/A   Scattered Clouds
2:50 AM 35.6 °F 32.8 °F 33.8 °F 93% 29.27 in - ESE 3.5 mph - N/A   Clear
3:20 AM 37.4 °F 32.8 °F 35.6 °F 93% 29.24 in - South 5.8 mph - N/A   Clear
3:50 AM 35.6 °F 30.7 °F 33.8 °F 93% 29.24 in - South 5.8 mph - N/A   Clear
4:20 AM 39.2 °F 33.6 °F 35.6 °F 87% 29.24 in - SSE 8.1 mph - N/A   Clear
4:50 AM 41.0 °F 35.8 °F 37.4 °F 87% 29.24 in 5.6 mi South 8.1 mph - N/A Rain Light Rain
5:20 AM 42.8 °F 35.8 °F 37.4 °F 81% 29.24 in 6.2 mi South 13.8 mph - N/A Rain Light Rain
5:50 AM 41.0 °F 32.8 °F 35.6 °F 81% 29.21 in - South 16.1 mph - N/A   Clear
6:20 AM 39.2 °F 33.0 °F 33.8 °F 81% 29.21 in - SSW 9.2 mph - N/A   Clear
6:50 AM 39.2 °F 32.5 °F 33.8 °F 81% 29.21 in - SSW 10.4 mph - N/A   Clear
7:20 AM 39.2 °F 35.0 °F 33.8 °F 81% 29.21 in 6.2 mi South 5.8 mph - N/A   Unknown
7:50 AM 39.2 °F 35.9 °F 33.8 °F 81% 29.21 in - SSE 4.6 mph - N/A   Clear
8:20 AM 37.4 °F 34.9 °F 33.8 °F 87% 29.21 in 6.2 mi Variable 3.5 mph - N/A   Partly Cloudy
8:50 AM 35.6 °F 30.7 °F 32.0 °F 87% 29.21 in 6.2 mi ENE 5.8 mph - N/A   Partly Cloudy
9:20 AM 37.4 °F 34.9 °F 33.8 °F 87% 29.18 in 6.2 mi Variable 3.5 mph - N/A   Partly Cloudy
9:50 AM 37.4 °F 32.8 °F 33.8 °F 87% 29.18 in 6.2 mi East 5.8 mph - N/A   Partly Cloudy
10:20 AM 37.4 °F 32.8 °F 33.8 °F 87% 29.18 in 6.2 mi ENE 5.8 mph - N/A   Partly Cloudy
10:50 AM 39.2 °F 35.0 °F 35.6 °F 87% 29.15 in 6.2 mi ENE 5.8 mph - N/A   Partly Cloudy
11:20 AM 39.2 °F 35.9 °F 35.6 °F 87% 29.15 in 6.2 mi East 4.6 mph - N/A   Partly Cloudy
11:50 AM 41.0 °F 36.4 °F 37.4 °F 87% 29.12 in 6.2 mi NE 6.9 mph - N/A   Partly Cloudy
12:20 PM 41.0 °F 36.4 °F 37.4 °F 87% 29.09 in 6.2 mi ENE 6.9 mph - N/A   Partly Cloudy
12:50 PM 41.0 °F 33.5 °F 37.4 °F 87% 29.06 in 6.2 mi East 13.8 mph - N/A   Scattered Clouds
1:20 PM 41.0 °F 32.8 °F 37.4 °F 87% 29.03 in 6.2 mi East 16.1 mph - N/A   Scattered Clouds
1:50 PM 41.0 °F 33.1 °F 37.4 °F 87% 29.00 in 6.2 mi East 15.0 mph - N/A   Mostly Cloudy
2:20 PM 41.0 °F 34.3 °F 37.4 °F 87% 28.97 in 6.2 mi ENE 11.5 mph - N/A   Mostly Cloudy
2:50 PM 41.0 °F 33.5 °F 37.4 °F 87% 28.94 in 6.2 mi ENE 13.8 mph - N/A   Mostly Cloudy
3:20 PM 41.0 °F 33.5 °F 39.2 °F 93% 28.91 in 6.2 mi ENE 13.8 mph - N/A   Overcast
3:50 PM 42.8 °F 34.8 °F 39.2 °F 87% 28.88 in 6.2 mi East 17.3 mph - N/A Rain Light Rain
4:20 PM 42.8 °F 34.8 °F 39.2 °F 87% 28.85 in 6.2 mi East 17.3 mph - N/A Rain Light Rain
4:50 PM 41.0 °F 32.8 °F 39.2 °F 93% 28.80 in 6.2 mi East 16.1 mph - N/A Rain Light Rain
5:20 PM 41.0 °F 33.1 °F 39.2 °F 93% 28.77 in 6.2 mi East 15.0 mph - N/A   Overcast
5:50 PM 41.0 °F 33.9 °F 39.2 °F 93% 28.77 in 6.2 mi East 12.7 mph - N/A   Overcast
6:20 PM 41.0 °F 35.8 °F 39.2 °F 93% 28.74 in 6.2 mi ENE 8.1 mph - N/A   Mostly Cloudy
6:50 PM 42.8 °F 38.6 °F 41.0 °F 93% 28.71 in 6.2 mi ENE 6.9 mph - N/A   Mostly Cloudy
7:20 PM 42.8 °F 36.6 °F 41.0 °F 93% 28.71 in 6.2 mi East 11.5 mph - N/A   Mostly Cloudy
7:50 PM 44.6 °F 39.2 °F 42.8 °F 93% 28.71 in 5.0 mi East 10.4 mph - N/A   Mostly Cloudy
8:20 PM 44.6 °F 39.2 °F 42.8 °F 93% 28.68 in 6.2 mi East 10.4 mph - N/A   Overcast
8:50 PM 44.6 °F 41.4 °F 42.8 °F 93% 28.68 in 6.2 mi ENE 5.8 mph - N/A Rain Light Rain
9:20 PM 46.4 °F 42.9 °F 42.8 °F 87% 28.68 in 6.2 mi SW 6.9 mph - N/A   Mostly Cloudy
9:50 PM 48.2 °F - 42.8 °F 82% 28.68 in 6.2 mi South 8.1 mph - N/A   Partly Cloudy
10:20 PM 48.2 °F - 42.8 °F 82% 28.65 in 6.2 mi South 12.7 mph - N/A   Scattered Clouds
10:50 PM 48.2 °F - 42.8 °F 82% 28.68 in 6.2 mi South 13.8 mph - N/A   Mostly Cloudy
11:20 PM 46.4 °F 39.8 °F 42.8 °F 87% 28.65 in 6.2 mi South 16.1 mph - N/A   Mostly Cloudy
11:50 PM 46.4 °F 39.5 °F 42.8 °F 87% 28.68 in 6.2 mi SSW 17.3 mph - N/A Rain Light Rain